RYR41YE LOWW-LEPA

Flight info

Callsign RYR41YE
Flight time 2h 4m
Altitude 38000
Route RUPET DCT GRZ DCT VAMET DCT BERTA DCT RIFEN/N0435F370 DCT PIDAD DCT TALEP DCT RARQU DCT BALEN UT250 RIXOT
Aircraft A320/M-SDE3FGHIRWY/LB1

Departure

Time 2026-04-26 08:54
Airport Vienna International Airport (LOWW)

Arrival

Time 2026-04-26 10:58
Airport Palma de Mallorca Airport (LEPA)
Time Latitude Longitude Altitude Speed Heading
2026-04-26 08:30 48.11462 16.57012 614 ft 0 kts 206°
2026-04-26 08:50 48.11450 16.57003 618 ft 4 kts 206°
2026-04-26 08:51 48.11374 16.57038 610 ft 9 kts 146°
2026-04-26 08:51 48.11305 16.57057 613 ft 11 kts 164°
2026-04-26 08:51 48.11250 16.57151 616 ft 13 kts 116°
2026-04-26 08:52 48.11206 16.57285 612 ft 15 kts 116°
2026-04-26 08:52 48.11156 16.57436 610 ft 17 kts 117°
2026-04-26 08:52 48.11074 16.57516 610 ft 18 kts 192°
2026-04-26 08:52 48.10964 16.57437 620 ft 13 kts 222°
2026-04-26 08:53 48.10981 16.57328 619 ft 12 kts 295°
2026-04-26 08:53 48.10986 16.57313 615 ft 0 kts 298°
2026-04-26 08:53 48.11001 16.57267 615 ft 25 kts 297°
2026-04-26 08:53 48.11183 16.56712 609 ft 90 kts 295°
2026-04-26 08:54 48.11533 16.55643 621 ft 139 kts 296°
2026-04-26 08:54 48.12001 16.54264 1004 ft 145 kts 301°
2026-04-26 08:54 48.12291 16.52816 1570 ft 154 kts 275°
2026-04-26 08:54 48.11938 16.51229 2084 ft 177 kts 243°
2026-04-26 08:55 48.10869 16.49963 2297 ft 214 kts 217°
2026-04-26 08:55 48.09517 16.48770 2640 ft 237 kts 216°
2026-04-26 08:55 48.08035 16.47447 3012 ft 260 kts 218°
2026-04-26 08:55 48.06579 16.45757 3707 ft 269 kts 225°
2026-04-26 08:56 48.05230 16.44040 4578 ft 272 kts 227°
2026-04-26 08:56 48.04285 16.42814 5218 ft 272 kts 228°
2026-04-26 08:56 48.02377 16.40306 6520 ft 273 kts 230°
2026-04-26 08:56 48.00839 16.38585 7407 ft 281 kts 220°
2026-04-26 08:57 47.99161 16.37039 8202 ft 287 kts 220°
2026-04-26 08:57 47.97436 16.35486 8995 ft 292 kts 219°
2026-04-26 08:57 47.95673 16.33912 9798 ft 297 kts 219°
2026-04-26 08:57 47.93874 16.32307 10356 ft 311 kts 219°
2026-04-26 08:58 47.91959 16.30584 10587 ft 333 kts 219°
2026-04-26 08:58 47.89934 16.28773 11063 ft 343 kts 218°
2026-04-26 08:58 47.87872 16.26948 11712 ft 347 kts 217°
2026-04-26 08:58 47.85782 16.25103 12413 ft 351 kts 217°
2026-04-26 08:59 47.83695 16.23256 13111 ft 354 kts 216°
2026-04-26 08:59 47.81544 16.21351 13811 ft 358 kts 216°
2026-04-26 08:59 47.79417 16.19464 14441 ft 362 kts 216°
2026-04-26 08:59 47.77243 16.17534 15055 ft 365 kts 216°
2026-04-26 09:00 47.75049 16.15581 15654 ft 368 kts 216°
2026-04-26 09:00 47.72846 16.13623 16257 ft 371 kts 216°
2026-04-26 09:00 47.70622 16.11651 16869 ft 374 kts 215°
2026-04-26 09:00 47.68369 16.09660 17470 ft 378 kts 215°
2026-04-26 09:01 47.66104 16.07660 18082 ft 381 kts 215°
2026-04-26 09:01 47.63816 16.05637 18669 ft 385 kts 215°
2026-04-26 09:01 47.61506 16.03596 19217 ft 387 kts 215°
2026-04-26 09:01 47.59176 16.01540 19744 ft 390 kts 214°
2026-04-26 09:02 47.56866 15.99511 20307 ft 394 kts 214°
2026-04-26 09:02 47.54725 15.97671 20831 ft 397 kts 214°
2026-04-26 09:02 47.52332 15.95618 21451 ft 400 kts 214°
2026-04-26 09:02 47.50052 15.93633 22008 ft 404 kts 214°
2026-04-26 09:03 47.47605 15.91544 22578 ft 410 kts 213°
2026-04-26 09:03 47.45112 15.89446 23186 ft 411 kts 214°
2026-04-26 09:03 47.42657 15.87272 23730 ft 413 kts 215°
2026-04-26 09:03 47.40199 15.85041 24174 ft 416 kts 215°
2026-04-26 09:04 47.37754 15.82827 24592 ft 418 kts 215°
2026-04-26 09:04 47.35231 15.80568 25014 ft 421 kts 214°
2026-04-26 09:04 47.32735 15.78366 25392 ft 425 kts 214°
2026-04-26 09:04 47.30176 15.76131 25759 ft 428 kts 213°
2026-04-26 09:05 47.27605 15.73904 26170 ft 431 kts 213°
2026-04-26 09:05 47.24984 15.71638 26559 ft 433 kts 213°
2026-04-26 09:05 47.22398 15.69401 26955 ft 435 kts 213°
2026-04-26 09:05 47.19785 15.67141 27339 ft 437 kts 213°
2026-04-26 09:06 47.17151 15.64866 27719 ft 440 kts 213°
2026-04-26 09:06 47.14514 15.62591 28075 ft 442 kts 213°
2026-04-26 09:06 47.11851 15.60296 28501 ft 443 kts 213°
2026-04-26 09:06 47.09461 15.58238 28885 ft 444 kts 212°
2026-04-26 09:07 47.07023 15.56134 29225 ft 446 kts 212°
2026-04-26 09:07 47.04337 15.53816 29606 ft 448 kts 212°
2026-04-26 09:07 47.01648 15.51503 29991 ft 449 kts 212°
2026-04-26 09:07 46.98941 15.49179 30340 ft 451 kts 212°
2026-04-26 09:08 46.96239 15.46858 30662 ft 452 kts 212°
2026-04-26 09:08 46.93516 15.44524 31021 ft 452 kts 212°
2026-04-26 09:08 46.91687 15.42959 31289 ft 451 kts 212°
2026-04-26 09:08 46.88979 15.40643 31776 ft 448 kts 212°
2026-04-26 09:09 46.86285 15.38349 32255 ft 446 kts 212°
2026-04-26 09:09 46.83616 15.36080 32727 ft 443 kts 212°
2026-04-26 09:09 46.80987 15.33843 33192 ft 441 kts 212°
2026-04-26 09:09 46.78456 15.31267 33657 ft 437 kts 222°
2026-04-26 09:10 46.76292 15.28172 34089 ft 434 kts 231°
2026-04-26 09:10 46.74499 15.24658 34406 ft 432 kts 238°
2026-04-26 09:10 46.72812 15.21019 34727 ft 432 kts 238°
2026-04-26 09:10 46.71124 15.17414 35063 ft 431 kts 238°
2026-04-26 09:11 46.69449 15.13860 35416 ft 429 kts 237°
2026-04-26 09:11 46.67735 15.10247 35762 ft 428 kts 237°
2026-04-26 09:11 46.66045 15.06692 36080 ft 427 kts 238°
2026-04-26 09:11 46.64354 15.03129 36400 ft 426 kts 238°
2026-04-26 09:12 46.62687 14.99619 36712 ft 425 kts 238°
2026-04-26 09:12 46.61010 14.96088 37006 ft 425 kts 238°
2026-04-26 09:12 46.59330 14.92551 37280 ft 424 kts 238°
2026-04-26 09:12 46.57655 14.89032 37558 ft 424 kts 238°
2026-04-26 09:13 46.55976 14.85507 37846 ft 423 kts 238°
2026-04-26 09:13 46.54298 14.81987 38066 ft 423 kts 238°
2026-04-26 09:13 46.52614 14.78470 38139 ft 424 kts 238°
2026-04-26 09:14 46.49251 14.71452 38139 ft 424 kts 238°
2026-04-26 09:14 46.45875 14.64416 38143 ft 425 kts 238°
2026-04-26 09:15 46.42338 14.57546 38146 ft 426 kts 234°
2026-04-26 09:15 46.38523 14.50962 38138 ft 427 kts 232°
2026-04-26 09:16 46.34686 14.44447 38142 ft 427 kts 233°
2026-04-26 09:16 46.30888 14.37859 38143 ft 427 kts 233°
2026-04-26 09:17 46.27103 14.31233 38134 ft 427 kts 233°
2026-04-26 09:17 46.23320 14.24625 38137 ft 427 kts 233°
2026-04-26 09:18 46.19519 14.18029 38141 ft 427 kts 233°
2026-04-26 09:18 46.15715 14.11436 38135 ft 427 kts 233°
2026-04-26 09:19 46.11908 14.04851 38125 ft 427 kts 233°
2026-04-26 09:19 46.08067 13.98236 38120 ft 427 kts 233°
2026-04-26 09:20 46.04271 13.91714 38119 ft 427 kts 232°
2026-04-26 09:20 46.00456 13.85164 38123 ft 427 kts 233°
2026-04-26 09:21 45.96644 13.78630 38123 ft 427 kts 232°
2026-04-26 09:21 45.92825 13.72099 38124 ft 427 kts 232°
2026-04-26 09:22 45.88998 13.65585 38126 ft 427 kts 232°
2026-04-26 09:22 45.85210 13.59033 38126 ft 425 kts 237°
2026-04-26 09:23 45.82124 13.51818 38122 ft 423 kts 242°
2026-04-26 09:23 45.79096 13.44589 38122 ft 423 kts 241°
2026-04-26 09:24 45.76064 13.37376 38121 ft 422 kts 241°
2026-04-26 09:24 45.73025 13.30180 38142 ft 422 kts 241°
2026-04-26 09:25 45.70002 13.23040 38118 ft 422 kts 241°
2026-04-26 09:25 45.66966 13.15865 38120 ft 421 kts 241°
2026-04-26 09:26 45.63932 13.08715 38138 ft 421 kts 241°
2026-04-26 09:26 45.60887 13.01555 38120 ft 421 kts 241°
2026-04-26 09:27 45.57836 12.94392 38136 ft 421 kts 240°
2026-04-26 09:27 45.54785 12.87265 38128 ft 420 kts 240°
2026-04-26 09:28 45.51729 12.80152 38128 ft 420 kts 240°
2026-04-26 09:28 45.48677 12.73053 38132 ft 420 kts 240°
2026-04-26 09:29 45.45592 12.65984 38124 ft 420 kts 239°
2026-04-26 09:29 45.42346 12.59072 38125 ft 420 kts 238°
2026-04-26 09:30 45.39046 12.52240 38127 ft 421 kts 238°
2026-04-26 09:30 45.35757 12.45359 38122 ft 420 kts 238°
2026-04-26 09:31 45.32485 12.38469 38129 ft 420 kts 238°
2026-04-26 09:31 45.29216 12.31596 38125 ft 420 kts 238°
2026-04-26 09:32 45.25945 12.24734 38125 ft 420 kts 238°
2026-04-26 09:32 45.22666 12.17878 38129 ft 420 kts 238°
2026-04-26 09:33 45.19381 12.11034 38136 ft 420 kts 237°
2026-04-26 09:33 45.16091 12.04195 38143 ft 420 kts 237°
2026-04-26 09:34 45.12804 11.97361 38129 ft 420 kts 237°
2026-04-26 09:34 45.09503 11.90538 38144 ft 420 kts 237°
2026-04-26 09:35 45.06296 11.83634 38167 ft 419 kts 239°
2026-04-26 09:35 45.02816 11.77010 38157 ft 419 kts 242°
2026-04-26 09:36 44.99835 11.69986 38122 ft 420 kts 229°
2026-04-26 09:36 44.96137 11.63642 38167 ft 418 kts 237°
2026-04-26 09:37 44.92938 11.56810 38175 ft 418 kts 239°
2026-04-26 09:37 44.89748 11.49943 38181 ft 419 kts 238°
2026-04-26 09:38 44.86443 11.43147 38205 ft 419 kts 236°
2026-04-26 09:38 44.83121 11.36463 38198 ft 419 kts 236°
2026-04-26 09:39 44.79770 11.29694 38186 ft 419 kts 237°
2026-04-26 09:39 44.76441 11.22955 38207 ft 419 kts 237°
2026-04-26 09:40 44.73130 11.16273 38218 ft 419 kts 236°
2026-04-26 09:40 44.69760 11.09517 38218 ft 419 kts 236°
2026-04-26 09:41 44.66417 11.02802 38222 ft 419 kts 236°
2026-04-26 09:41 44.63073 10.96087 38218 ft 419 kts 236°
2026-04-26 09:42 44.59717 10.89381 38228 ft 419 kts 236°
2026-04-26 09:42 44.56368 10.82699 38229 ft 419 kts 236°
2026-04-26 09:43 44.53010 10.76018 38240 ft 419 kts 236°
2026-04-26 09:43 44.49645 10.69347 38238 ft 419 kts 236°
2026-04-26 09:44 44.46269 10.62667 38235 ft 419 kts 236°
2026-04-26 09:44 44.42901 10.56012 38234 ft 420 kts 236°
2026-04-26 09:45 44.39545 10.49385 38235 ft 420 kts 236°
2026-04-26 09:45 44.36164 10.42738 38250 ft 420 kts 236°
2026-04-26 09:46 44.32782 10.36093 38231 ft 420 kts 236°
2026-04-26 09:46 44.29391 10.29459 38226 ft 419 kts 236°
2026-04-26 09:47 44.25993 10.22837 38203 ft 420 kts 236°
2026-04-26 09:47 44.22602 10.16227 38197 ft 419 kts 236°
2026-04-26 09:48 44.19196 10.09605 38188 ft 419 kts 236°
2026-04-26 09:48 44.15811 10.03047 38177 ft 419 kts 236°
2026-04-26 09:49 44.12405 9.96453 38177 ft 419 kts 236°
2026-04-26 09:49 44.08991 9.89867 38181 ft 420 kts 236°
2026-04-26 09:50 44.06136 9.84364 38182 ft 420 kts 236°
2026-04-26 09:50 44.02721 9.77787 38194 ft 419 kts 236°
2026-04-26 09:51 43.99301 9.71220 38186 ft 419 kts 235°
2026-04-26 09:51 43.95876 9.64662 38194 ft 419 kts 235°
2026-04-26 09:52 43.92443 9.58112 38199 ft 420 kts 235°
2026-04-26 09:52 43.87289 9.48277 38204 ft 420 kts 235°
2026-04-26 09:53 43.83843 9.41732 38208 ft 420 kts 235°
2026-04-26 09:53 43.80390 9.35196 38203 ft 421 kts 235°
2026-04-26 09:54 43.76927 9.28668 38208 ft 421 kts 235°
2026-04-26 09:54 43.73467 9.22140 38205 ft 421 kts 235°
2026-04-26 09:55 43.70021 9.15653 38205 ft 420 kts 235°
2026-04-26 09:55 43.66558 9.09145 38197 ft 420 kts 235°
2026-04-26 09:56 43.63093 9.02648 38195 ft 420 kts 235°
2026-04-26 09:56 43.59604 8.96125 38198 ft 420 kts 235°
2026-04-26 09:57 43.56142 8.89664 38198 ft 421 kts 235°
2026-04-26 09:57 43.52663 8.83185 38200 ft 420 kts 235°
2026-04-26 09:58 43.49157 8.76687 38191 ft 420 kts 234°
2026-04-26 09:58 43.45546 8.70427 38193 ft 422 kts 226°
2026-04-26 09:59 43.41195 8.64998 38196 ft 422 kts 224°
2026-04-26 09:59 43.36825 8.59594 38193 ft 422 kts 224°
2026-04-26 10:00 43.32458 8.54191 38197 ft 423 kts 224°
2026-04-26 10:00 43.28079 8.48799 38187 ft 423 kts 223°
2026-04-26 10:01 43.23695 8.43415 38195 ft 423 kts 223°
2026-04-26 10:01 43.19305 8.38031 38199 ft 423 kts 223°
2026-04-26 10:02 43.14886 8.32621 38205 ft 423 kts 224°
2026-04-26 10:02 43.10529 8.27300 38193 ft 423 kts 223°
2026-04-26 10:03 43.06131 8.21944 38198 ft 423 kts 223°
2026-04-26 10:03 43.01733 8.16578 38201 ft 424 kts 223°
2026-04-26 10:04 42.97324 8.11206 38204 ft 424 kts 223°
2026-04-26 10:04 42.92916 8.05862 38198 ft 423 kts 223°
2026-04-26 10:05 42.88508 8.00537 38197 ft 423 kts 223°
2026-04-26 10:05 42.84099 7.95221 38199 ft 423 kts 223°
2026-04-26 10:06 42.79690 7.89903 38203 ft 423 kts 223°
2026-04-26 10:06 42.75284 7.84600 38199 ft 423 kts 223°
2026-04-26 10:07 42.70875 7.79305 38194 ft 423 kts 223°
2026-04-26 10:07 42.66456 7.74022 38194 ft 423 kts 223°
2026-04-26 10:08 42.62028 7.68748 38197 ft 423 kts 223°
2026-04-26 10:08 42.57626 7.63491 38198 ft 423 kts 223°
2026-04-26 10:09 42.53219 7.58224 38198 ft 423 kts 223°
2026-04-26 10:09 42.48789 7.52960 38192 ft 423 kts 223°
2026-04-26 10:10 42.44356 7.47710 38191 ft 423 kts 223°
2026-04-26 10:10 42.39925 7.42456 38193 ft 423 kts 223°
2026-04-26 10:11 42.35493 7.37212 38189 ft 423 kts 223°
2026-04-26 10:11 42.31051 7.31983 38190 ft 423 kts 223°
2026-04-26 10:12 42.26608 7.26755 38184 ft 423 kts 223°
2026-04-26 10:12 42.22165 7.21528 38191 ft 423 kts 223°
2026-04-26 10:13 42.17729 7.16323 38186 ft 423 kts 223°
2026-04-26 10:13 42.13277 7.11115 38188 ft 423 kts 222°
2026-04-26 10:14 42.08826 7.05917 38185 ft 423 kts 222°
2026-04-26 10:14 42.04372 7.00726 38185 ft 423 kts 222°
2026-04-26 10:15 41.99934 6.95517 38181 ft 423 kts 223°
2026-04-26 10:15 41.95589 6.90176 38177 ft 423 kts 224°
2026-04-26 10:16 41.91266 6.84804 38178 ft 423 kts 224°
2026-04-26 10:16 41.86923 6.79452 38177 ft 424 kts 224°
2026-04-26 10:17 41.82561 6.74130 38180 ft 424 kts 224°
2026-04-26 10:17 41.78189 6.68819 38181 ft 424 kts 223°
2026-04-26 10:18 41.73844 6.63543 38194 ft 424 kts 223°
2026-04-26 10:18 41.69470 6.58240 38185 ft 424 kts 223°
2026-04-26 10:19 41.65095 6.52939 38184 ft 424 kts 223°
2026-04-26 10:19 41.60717 6.47635 38189 ft 425 kts 223°
2026-04-26 10:20 41.57039 6.43192 38192 ft 425 kts 223°
2026-04-26 10:20 41.51951 6.37068 38193 ft 424 kts 223°
2026-04-26 10:21 41.47561 6.31793 38197 ft 424 kts 223°
2026-04-26 10:21 41.43174 6.26534 38166 ft 425 kts 223°
2026-04-26 10:22 41.40961 6.23888 37922 ft 430 kts 223°
2026-04-26 10:22 41.38723 6.21209 37638 ft 432 kts 223°
2026-04-26 10:22 41.36479 6.18530 37364 ft 432 kts 223°
2026-04-26 10:22 41.34251 6.15872 37088 ft 430 kts 223°
2026-04-26 10:23 41.32018 6.13208 36828 ft 429 kts 223°
2026-04-26 10:23 41.29801 6.10567 36563 ft 428 kts 223°
2026-04-26 10:23 41.27586 6.07926 36291 ft 426 kts 222°
2026-04-26 10:23 41.25408 6.05330 36050 ft 425 kts 223°
2026-04-26 10:24 41.23211 6.02716 35795 ft 424 kts 222°
2026-04-26 10:24 41.21013 6.00100 35543 ft 422 kts 222°
2026-04-26 10:24 41.18830 5.97502 35288 ft 422 kts 222°
2026-04-26 10:24 41.16638 5.94899 35046 ft 421 kts 222°
2026-04-26 10:25 41.14458 5.92319 34799 ft 420 kts 222°
2026-04-26 10:25 41.12272 5.89734 34557 ft 420 kts 222°
2026-04-26 10:25 41.10096 5.87167 34320 ft 419 kts 222°
2026-04-26 10:25 41.07909 5.84593 34077 ft 419 kts 222°
2026-04-26 10:26 41.05742 5.82031 33796 ft 418 kts 222°
2026-04-26 10:26 41.03571 5.79462 33520 ft 417 kts 222°
2026-04-26 10:26 41.01412 5.76916 33251 ft 416 kts 222°
2026-04-26 10:26 40.99246 5.74373 32983 ft 415 kts 221°
2026-04-26 10:27 40.97095 5.71852 32725 ft 413 kts 222°
2026-04-26 10:27 40.94965 5.69294 32447 ft 411 kts 227°
2026-04-26 10:27 40.93221 5.66329 32204 ft 409 kts 235°
2026-04-26 10:27 40.91575 5.63264 31939 ft 409 kts 235°
2026-04-26 10:28 40.89934 5.60185 31682 ft 408 kts 236°
2026-04-26 10:28 40.88302 5.57121 31432 ft 408 kts 236°
2026-04-26 10:28 40.86667 5.54055 31185 ft 406 kts 235°
2026-04-26 10:28 40.85041 5.51017 30935 ft 405 kts 235°
2026-04-26 10:29 40.83405 5.47976 30676 ft 405 kts 236°
2026-04-26 10:29 40.81780 5.44957 30458 ft 404 kts 235°
2026-04-26 10:29 40.80163 5.41949 30205 ft 402 kts 235°
2026-04-26 10:29 40.78539 5.38940 29919 ft 401 kts 235°
2026-04-26 10:30 40.76939 5.35981 29645 ft 399 kts 235°
2026-04-26 10:30 40.75311 5.32971 29351 ft 398 kts 235°
2026-04-26 10:30 40.73706 5.30001 29075 ft 396 kts 235°
2026-04-26 10:30 40.72115 5.27053 28802 ft 395 kts 235°
2026-04-26 10:31 40.70527 5.24118 28530 ft 392 kts 235°
2026-04-26 10:31 40.68940 5.21192 28263 ft 391 kts 235°
2026-04-26 10:31 40.67380 5.18317 27999 ft 390 kts 235°
2026-04-26 10:31 40.65811 5.15428 27737 ft 388 kts 235°
2026-04-26 10:32 40.64244 5.12543 27477 ft 385 kts 235°
2026-04-26 10:32 40.62686 5.09685 27218 ft 384 kts 235°
2026-04-26 10:32 40.61125 5.06825 26971 ft 383 kts 235°
2026-04-26 10:32 40.59559 5.03955 26715 ft 381 kts 235°
2026-04-26 10:33 40.58535 5.02074 26540 ft 380 kts 235°
2026-04-26 10:33 40.57004 4.99261 26291 ft 379 kts 235°
2026-04-26 10:33 40.55467 4.96446 26043 ft 377 kts 235°
2026-04-26 10:33 40.53942 4.93658 25797 ft 375 kts 235°
2026-04-26 10:34 40.52425 4.90885 25558 ft 374 kts 234°
2026-04-26 10:34 40.50904 4.88110 25315 ft 373 kts 235°
2026-04-26 10:34 40.49393 4.85357 25077 ft 371 kts 235°
2026-04-26 10:34 40.47904 4.82645 24843 ft 369 kts 234°
2026-04-26 10:35 40.46386 4.79884 24605 ft 368 kts 235°
2026-04-26 10:35 40.44904 4.77189 24376 ft 367 kts 235°
2026-04-26 10:35 40.43409 4.74471 24143 ft 366 kts 234°
2026-04-26 10:35 40.41929 4.71785 23908 ft 362 kts 235°
2026-04-26 10:36 40.40459 4.69113 23539 ft 359 kts 235°
2026-04-26 10:36 40.39006 4.66468 23124 ft 357 kts 234°
2026-04-26 10:36 40.37558 4.63843 22799 ft 356 kts 234°
2026-04-26 10:36 40.36099 4.61203 22474 ft 357 kts 234°
2026-04-26 10:37 40.34647 4.58577 22144 ft 356 kts 234°
2026-04-26 10:37 40.33190 4.55947 21810 ft 354 kts 234°
2026-04-26 10:37 40.31741 4.53334 21491 ft 352 kts 234°
2026-04-26 10:37 40.30306 4.50748 21161 ft 351 kts 234°
2026-04-26 10:38 40.28869 4.48159 20834 ft 350 kts 234°
2026-04-26 10:38 40.27438 4.45579 20501 ft 348 kts 234°
2026-04-26 10:38 40.26018 4.43026 20185 ft 347 kts 234°
2026-04-26 10:38 40.24596 4.40473 19862 ft 346 kts 234°
2026-04-26 10:39 40.23200 4.37963 19546 ft 344 kts 234°
2026-04-26 10:39 40.21777 4.35409 19214 ft 343 kts 234°
2026-04-26 10:39 40.20391 4.32923 18910 ft 341 kts 233°
2026-04-26 10:39 40.18995 4.30420 18593 ft 340 kts 233°
2026-04-26 10:40 40.17602 4.27921 18250 ft 338 kts 233°
2026-04-26 10:40 40.16221 4.25443 17925 ft 337 kts 233°
2026-04-26 10:40 40.14836 4.22964 17618 ft 336 kts 233°
2026-04-26 10:40 40.13455 4.20498 17307 ft 335 kts 233°
2026-04-26 10:41 40.12086 4.18055 16999 ft 333 kts 233°
2026-04-26 10:41 40.10718 4.15617 16690 ft 331 kts 233°
2026-04-26 10:41 40.09360 4.13201 16382 ft 330 kts 233°
2026-04-26 10:41 40.08002 4.10783 16073 ft 329 kts 233°
2026-04-26 10:42 40.06669 4.08407 15766 ft 328 kts 233°
2026-04-26 10:42 40.05302 4.05977 15457 ft 326 kts 233°
2026-04-26 10:42 40.03981 4.03635 15167 ft 325 kts 233°
2026-04-26 10:42 40.02640 4.01259 14862 ft 324 kts 233°
2026-04-26 10:43 40.01311 3.98903 14556 ft 323 kts 233°
2026-04-26 10:43 39.99979 3.96543 14259 ft 322 kts 233°
2026-04-26 10:43 39.98659 3.94203 13958 ft 320 kts 233°
2026-04-26 10:43 39.97337 3.91862 13642 ft 319 kts 233°
2026-04-26 10:44 39.96022 3.89535 13344 ft 317 kts 233°
2026-04-26 10:44 39.94722 3.87239 13045 ft 314 kts 233°
2026-04-26 10:44 39.93431 3.84963 12759 ft 312 kts 233°
2026-04-26 10:44 39.92145 3.82695 12476 ft 310 kts 233°
2026-04-26 10:45 39.90874 3.80450 12184 ft 308 kts 233°
2026-04-26 10:45 39.89601 3.78208 11900 ft 307 kts 233°
2026-04-26 10:45 39.88342 3.75989 11617 ft 304 kts 233°
2026-04-26 10:45 39.87086 3.73774 11340 ft 302 kts 233°
2026-04-26 10:46 39.85841 3.71583 11064 ft 300 kts 233°
2026-04-26 10:46 39.84604 3.69410 10786 ft 299 kts 233°
2026-04-26 10:46 39.83367 3.67238 10509 ft 297 kts 233°
2026-04-26 10:46 39.82143 3.65090 10233 ft 295 kts 233°
2026-04-26 10:47 39.80920 3.62947 9944 ft 294 kts 233°
2026-04-26 10:47 39.79705 3.60819 9663 ft 293 kts 233°
2026-04-26 10:47 39.78507 3.58721 9394 ft 292 kts 233°
2026-04-26 10:47 39.77285 3.56579 9119 ft 291 kts 233°
2026-04-26 10:48 39.76081 3.54467 8845 ft 291 kts 233°
2026-04-26 10:48 39.74891 3.52384 8583 ft 290 kts 233°
2026-04-26 10:48 39.73691 3.50292 8317 ft 289 kts 233°
2026-04-26 10:48 39.72490 3.48201 8045 ft 288 kts 233°
2026-04-26 10:49 39.71284 3.46094 7759 ft 287 kts 233°
2026-04-26 10:49 39.70207 3.43929 7496 ft 286 kts 244°
2026-04-26 10:49 39.69577 3.41525 7243 ft 285 kts 259°
2026-04-26 10:49 39.69303 3.38939 6980 ft 285 kts 263°
2026-04-26 10:50 39.69052 3.36436 6713 ft 284 kts 263°
2026-04-26 10:50 39.68874 3.34716 6532 ft 284 kts 262°
2026-04-26 10:50 39.68522 3.31342 6035 ft 287 kts 262°
2026-04-26 10:50 39.68256 3.28788 5742 ft 286 kts 262°
2026-04-26 10:51 39.67991 3.26239 5480 ft 283 kts 262°
2026-04-26 10:51 39.67464 3.21190 4955 ft 281 kts 262°
2026-04-26 10:51 39.67201 3.18676 4688 ft 282 kts 262°
2026-04-26 10:52 39.66938 3.16157 4421 ft 280 kts 262°
2026-04-26 10:52 39.66675 3.13652 4163 ft 280 kts 262°
2026-04-26 10:52 39.66413 3.11166 3924 ft 277 kts 262°
2026-04-26 10:52 39.66159 3.08739 3835 ft 268 kts 262°
2026-04-26 10:53 39.65909 3.06381 3724 ft 259 kts 262°
2026-04-26 10:53 39.65666 3.04108 3602 ft 249 kts 262°
2026-04-26 10:53 39.65432 3.01919 3499 ft 241 kts 262°
2026-04-26 10:54 39.64989 2.97744 3296 ft 226 kts 262°
2026-04-26 10:54 39.64692 2.95800 3201 ft 215 kts 248°
2026-04-26 10:54 39.64000 2.94127 3112 ft 207 kts 237°
2026-04-26 10:54 39.63265 2.92567 2921 ft 199 kts 237°
2026-04-26 10:55 39.62560 2.91068 2650 ft 190 kts 237°
2026-04-26 10:55 39.61893 2.89650 2406 ft 180 kts 238°
2026-04-26 10:55 39.61250 2.88284 2165 ft 173 kts 237°
2026-04-26 10:55 39.60657 2.87022 1962 ft 157 kts 237°
2026-04-26 10:56 39.60109 2.85859 1748 ft 150 kts 238°
2026-04-26 10:56 39.59568 2.84711 1544 ft 146 kts 238°
2026-04-26 10:56 39.59042 2.83595 1361 ft 147 kts 237°
2026-04-26 10:56 39.58510 2.82465 1162 ft 144 kts 237°
2026-04-26 10:57 39.57998 2.81379 979 ft 142 kts 236°
2026-04-26 10:57 39.57485 2.80279 798 ft 140 kts 238°
2026-04-26 10:57 39.57001 2.79213 614 ft 134 kts 238°
2026-04-26 10:57 39.56504 2.78192 448 ft 133 kts 236°
2026-04-26 10:58 39.56023 2.77191 266 ft 131 kts 238°
2026-04-26 10:58 39.55555 2.76193 66 ft 129 kts 237°
2026-04-26 10:58 39.55133 2.75295 30 ft 92 kts 237°
2026-04-26 10:58 39.54903 2.74806 30 ft 41 kts 238°
2026-04-26 10:59 39.54814 2.74504 30 ft 23 kts 259°
2026-04-26 10:59 39.54805 2.74312 30 ft 7 kts 268°
2026-04-26 10:59 39.54805 2.74310 30 ft 0 kts 268°
2026-04-26 11:00 39.54805 2.74308 30 ft 1 kts 268°
2026-04-26 11:00 39.54804 2.74283 30 ft 4 kts 268°
2026-04-26 11:00 39.54803 2.74227 30 ft 8 kts 268°
2026-04-26 11:00 39.54792 2.74143 30 ft 11 kts 250°
2026-04-26 11:01 39.54751 2.74043 30 ft 14 kts 241°
2026-04-26 11:01 39.54759 2.73940 30 ft 10 kts 288°
2026-04-26 11:01 39.54740 2.73841 30 ft 13 kts 241°
2026-04-26 11:01 39.54688 2.73728 30 ft 16 kts 238°
2026-04-26 11:02 39.54627 2.73592 30 ft 19 kts 238°
2026-04-26 11:02 39.54559 2.73460 30 ft 11 kts 238°
2026-04-26 11:02 39.54522 2.73384 30 ft 9 kts 234°
2026-04-26 11:02 39.54530 2.73347 30 ft 3 kts 305°
2026-04-26 11:03 39.54543 2.73333 30 ft 1 kts 328°
2026-04-26 11:03 39.54555 2.73328 30 ft 3 kts 343°
2026-04-26 11:03 39.54558 2.73327 30 ft 0 kts 343°